SWR56Z LSZH-LICJ

Flight info

Callsign SWR56Z
Flight time 1h 30m
Altitude 35000
Route VEBIT T53 GERSA N850 SOSON DCT ODINA DCT LUKIM DCT EVROG DCT POKAV DCT GIANO
Aircraft A21N/M-SDE3FGHIRWY/LB1

Departure

Time 2026-05-04 10:25
Airport Zürich Airport (LSZH)

Arrival

Time 2026-05-04 11:55
Airport Falcone–Borsellino Airport (LICJ)
Time Latitude Longitude Altitude Speed Heading
2026-05-04 10:05 47.45334 8.55842 1405 ft 0 kts
2026-05-04 10:13 47.45333 8.55842 1405 ft 0 kts
2026-05-04 10:13 47.45332 8.55842 1405 ft 1 kts
2026-05-04 10:14 47.45317 8.55840 1405 ft 2 kts
2026-05-04 10:14 47.45301 8.55837 1405 ft 2 kts
2026-05-04 10:16 47.45252 8.55888 1406 ft 0 kts 275°
2026-05-04 10:16 47.45252 8.55885 1406 ft 1 kts 275°
2026-05-04 10:17 47.45254 8.55856 1405 ft 4 kts 275°
2026-05-04 10:17 47.45259 8.55786 1404 ft 8 kts 278°
2026-05-04 10:19 47.45667 8.55437 1400 ft 13 kts 95°
2026-05-04 10:19 47.45659 8.55563 1402 ft 11 kts 96°
2026-05-04 10:19 47.45651 8.55676 1404 ft 10 kts 96°
2026-05-04 10:19 47.45644 8.55779 1406 ft 9 kts 96°
2026-05-04 10:20 47.45636 8.55883 1407 ft 10 kts 96°
2026-05-04 10:20 47.45628 8.55994 1409 ft 11 kts 96°
2026-05-04 10:20 47.45620 8.56111 1411 ft 11 kts 96°
2026-05-04 10:20 47.45611 8.56235 1413 ft 14 kts 97°
2026-05-04 10:21 47.45600 8.56395 1416 ft 16 kts 96°
2026-05-04 10:21 47.45589 8.56552 1418 ft 14 kts 96°
2026-05-04 10:21 47.45580 8.56689 1421 ft 12 kts 96°
2026-05-04 10:21 47.45571 8.56808 1423 ft 10 kts 96°
2026-05-04 10:22 47.45584 8.56993 1425 ft 9 kts 38°
2026-05-04 10:22 47.45645 8.57009 1425 ft 9 kts 331°
2026-05-04 10:22 47.45670 8.56918 1424 ft 7 kts 277°
2026-05-04 10:23 47.45675 8.56845 1423 ft 14 kts 275°
2026-05-04 10:23 47.45701 8.56483 1416 ft 69 kts 277°
2026-05-04 10:25 47.44569 8.44713 3992 ft 205 kts 223°
2026-05-04 10:25 47.43507 8.43270 4354 ft 211 kts 220°
2026-05-04 10:25 47.42233 8.42110 4649 ft 219 kts 193°
2026-05-04 10:25 47.40698 8.42163 4905 ft 228 kts 167°
2026-05-04 10:26 47.39086 8.42707 5155 ft 244 kts 166°
2026-05-04 10:26 47.37381 8.43205 5494 ft 258 kts 169°
2026-05-04 10:26 47.35541 8.43558 5863 ft 271 kts 172°
2026-05-04 10:26 47.33658 8.43870 6450 ft 275 kts 173°
2026-05-04 10:27 47.31755 8.44145 7115 ft 276 kts 174°
2026-05-04 10:27 47.29826 8.44412 7787 ft 277 kts 174°
2026-05-04 10:27 47.27933 8.44674 8447 ft 278 kts 174°
2026-05-04 10:27 47.26013 8.44996 9093 ft 279 kts 169°
2026-05-04 10:28 47.24135 8.45772 9756 ft 279 kts 159°
2026-05-04 10:28 47.22401 8.46947 10357 ft 281 kts 154°
2026-05-04 10:28 47.20616 8.48278 10667 ft 295 kts 154°
2026-05-04 10:28 47.18731 8.49697 10936 ft 309 kts 154°
2026-05-04 10:29 47.16708 8.50909 11190 ft 322 kts 163°
2026-05-04 10:29 47.14495 8.51670 11568 ft 331 kts 172°
2026-05-04 10:29 47.12206 8.52065 12112 ft 334 kts 175°
2026-05-04 10:29 47.09875 8.52398 12689 ft 335 kts 175°
2026-05-04 10:30 47.07570 8.52719 13233 ft 338 kts 176°
2026-05-04 10:30 47.05212 8.53051 13755 ft 341 kts 176°
2026-05-04 10:30 47.02846 8.53390 14270 ft 343 kts 176°
2026-05-04 10:30 47.00469 8.53734 14801 ft 345 kts 176°
2026-05-04 10:31 46.98090 8.54077 15312 ft 347 kts 176°
2026-05-04 10:31 46.95687 8.54422 15772 ft 350 kts 176°
2026-05-04 10:32 46.80850 8.56553 18475 ft 365 kts 176°
2026-05-04 10:33 46.78310 8.56917 18907 ft 367 kts 176°
2026-05-04 10:33 46.75774 8.57280 19340 ft 369 kts 176°
2026-05-04 10:33 46.73221 8.57645 19779 ft 371 kts 176°
2026-05-04 10:33 46.70634 8.58014 20195 ft 373 kts 176°
2026-05-04 10:34 46.68063 8.58379 20606 ft 375 kts 176°
2026-05-04 10:34 46.65492 8.58744 20993 ft 377 kts 176°
2026-05-04 10:34 46.62849 8.59121 21382 ft 380 kts 177°
2026-05-04 10:34 46.60212 8.59497 21790 ft 381 kts 177°
2026-05-04 10:35 46.57605 8.59868 22170 ft 383 kts 177°
2026-05-04 10:35 46.54943 8.60248 22559 ft 385 kts 177°
2026-05-04 10:35 46.52267 8.60628 22939 ft 387 kts 177°
2026-05-04 10:35 46.49594 8.61007 23296 ft 389 kts 177°
2026-05-04 10:36 46.46896 8.61390 23651 ft 391 kts 177°
2026-05-04 10:36 46.44177 8.61774 24011 ft 393 kts 177°
2026-05-04 10:36 46.41457 8.62157 24376 ft 394 kts 177°
2026-05-04 10:36 46.38734 8.62542 24732 ft 396 kts 177°
2026-05-04 10:37 46.35978 8.62930 25026 ft 399 kts 177°
2026-05-04 10:37 46.33213 8.63316 25200 ft 405 kts 177°
2026-05-04 10:37 46.30430 8.63707 25472 ft 407 kts 177°
2026-05-04 10:37 46.27607 8.64105 25790 ft 409 kts 177°
2026-05-04 10:39 46.10385 8.66697 27469 ft 421 kts 173°
2026-05-04 10:39 46.07505 8.67509 27722 ft 424 kts 170°
2026-05-04 10:39 46.04635 8.68482 27968 ft 426 kts 169°
2026-05-04 10:40 46.01720 8.69469 28208 ft 428 kts 169°
2026-05-04 10:40 45.98822 8.70448 28437 ft 430 kts 169°
2026-05-04 10:40 45.95880 8.71441 28665 ft 432 kts 169°
2026-05-04 10:40 45.92987 8.72417 28892 ft 433 kts 169°
2026-05-04 10:41 45.90014 8.73418 29120 ft 435 kts 169°
2026-05-04 10:41 45.87099 8.74399 29403 ft 435 kts 169°
2026-05-04 10:41 45.84150 8.75392 29762 ft 433 kts 169°
2026-05-04 10:41 45.81210 8.76380 30098 ft 432 kts 169°
2026-05-04 10:42 45.78257 8.77372 30417 ft 431 kts 169°
2026-05-04 10:42 45.75366 8.78341 30720 ft 431 kts 169°
2026-05-04 10:42 45.72420 8.79329 31011 ft 430 kts 169°
2026-05-04 10:42 45.69535 8.80293 31303 ft 430 kts 169°
2026-05-04 10:43 45.66594 8.81280 31588 ft 429 kts 169°
2026-05-04 10:44 45.46360 8.88027 33345 ft 426 kts 170°
2026-05-04 10:45 45.43432 8.88996 33520 ft 427 kts 170°
2026-05-04 10:45 45.40539 8.89954 33700 ft 427 kts 170°
2026-05-04 10:45 45.37669 8.90902 33867 ft 428 kts 170°
2026-05-04 10:45 45.34739 8.91868 34017 ft 429 kts 170°
2026-05-04 10:46 45.31831 8.92828 34153 ft 430 kts 170°
2026-05-04 10:46 45.28915 8.93789 34289 ft 431 kts 170°
2026-05-04 10:46 45.25992 8.94751 34428 ft 432 kts 170°
2026-05-04 10:46 45.23040 8.95723 34573 ft 433 kts 170°
2026-05-04 10:47 45.20112 8.96685 34693 ft 434 kts 170°
2026-05-04 10:47 45.17171 8.97650 34805 ft 435 kts 170°
2026-05-04 10:47 45.14198 8.98626 34914 ft 435 kts 170°
2026-05-04 10:47 45.11251 8.99591 35018 ft 436 kts 170°
2026-05-04 10:49 44.90509 9.06356 35088 ft 438 kts 171°
2026-05-04 10:50 44.84544 9.08291 35096 ft 439 kts 171°
2026-05-04 10:52 44.60693 9.15994 35108 ft 442 kts 171°
2026-05-04 10:52 44.54736 9.17907 35110 ft 442 kts 171°
2026-05-04 10:54 44.30793 9.25554 35110 ft 443 kts 171°
2026-05-04 10:56 44.07005 9.34918 35096 ft 450 kts 161°
2026-05-04 10:57 44.01222 9.38263 35110 ft 451 kts 161°
2026-05-04 10:57 43.95466 9.41577 35116 ft 451 kts 161°
2026-05-04 10:58 43.89640 9.44923 35118 ft 453 kts 161°
2026-05-04 10:58 43.83831 9.48247 35120 ft 454 kts 161°
2026-05-04 10:59 43.78010 9.51573 35116 ft 454 kts 161°
2026-05-04 10:59 43.72195 9.54891 35113 ft 454 kts 162°
2026-05-04 11:00 43.66331 9.58230 35112 ft 454 kts 162°
2026-05-04 11:02 43.42957 9.71471 35108 ft 456 kts 162°
2026-05-04 11:05 42.99686 9.98903 35103 ft 458 kts 158°
2026-05-04 11:06 42.93995 10.02766 35100 ft 459 kts 159°
2026-05-04 11:06 42.88280 10.06638 35095 ft 460 kts 159°
2026-05-04 11:10 42.47929 10.33739 35112 ft 465 kts 159°
2026-05-04 11:12 42.24613 10.49219 35113 ft 469 kts 159°
2026-05-04 11:12 42.18787 10.53071 35116 ft 469 kts 159°
2026-05-04 11:13 42.12920 10.56939 35117 ft 471 kts 159°
2026-05-04 11:13 42.07060 10.60793 35123 ft 471 kts 159°
2026-05-04 11:14 42.06064 10.61447 35121 ft 471 kts 159°
2026-05-04 11:16 41.77529 10.80096 35130 ft 474 kts 160°
2026-05-04 11:16 41.71629 10.83932 35130 ft 474 kts 160°
2026-05-04 11:17 41.65689 10.87784 35136 ft 475 kts 160°
2026-05-04 11:19 41.41813 11.03188 35141 ft 479 kts 160°
2026-05-04 11:19 41.35824 11.07031 35149 ft 480 kts 160°
2026-05-04 11:20 41.29813 11.10881 35038 ft 481 kts 160°
2026-05-04 11:20 41.23777 11.14737 35120 ft 483 kts 160°
2026-05-04 11:22 40.99518 11.30162 35142 ft 486 kts 160°
2026-05-04 11:23 40.93420 11.34018 35145 ft 486 kts 160°
2026-05-04 11:25 40.71848 11.46627 35150 ft 485 kts 163°
2026-05-04 11:25 40.65670 11.49996 35084 ft 484 kts 163°
2026-05-04 11:27 40.37700 11.65178 35157 ft 486 kts 163°
2026-05-04 11:28 40.31448 11.68557 35156 ft 484 kts 163°
2026-05-04 11:28 40.25254 11.71894 35158 ft 484 kts 163°
2026-05-04 11:29 40.19019 11.75242 35158 ft 485 kts 163°
2026-05-04 11:29 40.12808 11.78578 35159 ft 486 kts 163°
2026-05-04 11:33 39.68520 12.02154 30669 ft 502 kts 162°
2026-05-04 11:33 39.65283 12.03865 29939 ft 500 kts 162°
2026-05-04 11:33 39.62069 12.05563 29208 ft 499 kts 162°
2026-05-04 11:34 39.58867 12.07250 28486 ft 497 kts 162°
2026-05-04 11:34 39.55726 12.08906 27995 ft 489 kts 162°
2026-05-04 11:34 39.52586 12.10562 27521 ft 481 kts 162°
2026-05-04 11:34 39.49515 12.12178 27044 ft 474 kts 162°
2026-05-04 11:35 39.46498 12.13763 26570 ft 467 kts 161°
2026-05-04 11:35 39.43489 12.15342 26083 ft 461 kts 161°
2026-05-04 11:35 39.40576 12.16869 25612 ft 455 kts 161°
2026-05-04 11:35 39.37655 12.18401 25138 ft 449 kts 161°
2026-05-04 11:36 39.34776 12.19907 24663 ft 444 kts 161°
2026-05-04 11:36 39.31949 12.21384 24204 ft 439 kts 161°
2026-05-04 11:36 39.29147 12.22849 23747 ft 434 kts 161°
2026-05-04 11:36 39.26372 12.24297 23291 ft 429 kts 161°
2026-05-04 11:37 39.23619 12.25733 22832 ft 424 kts 161°
2026-05-04 11:37 39.20893 12.27153 22369 ft 420 kts 161°
2026-05-04 11:37 39.18190 12.28562 21901 ft 417 kts 161°
2026-05-04 11:37 39.15527 12.29947 21438 ft 414 kts 161°
2026-05-04 11:38 39.12855 12.31334 20969 ft 411 kts 161°
2026-05-04 11:38 39.10222 12.32701 20500 ft 408 kts 161°
2026-05-04 11:38 39.07601 12.34060 20031 ft 406 kts 161°
2026-05-04 11:38 39.05007 12.35405 19560 ft 403 kts 160°
2026-05-04 11:39 39.02410 12.36751 19088 ft 401 kts 160°
2026-05-04 11:39 38.99847 12.38077 18615 ft 400 kts 160°
2026-05-04 11:40 38.84625 12.46123 15818 ft 390 kts 156°
2026-05-04 11:41 38.82160 12.47607 15325 ft 388 kts 156°
2026-05-04 11:41 38.79744 12.49065 14859 ft 386 kts 156°
2026-05-04 11:41 38.77309 12.50535 14389 ft 384 kts 156°
2026-05-04 11:41 38.74899 12.51986 13909 ft 382 kts 156°
2026-05-04 11:42 38.72510 12.53422 13435 ft 379 kts 156°
2026-05-04 11:42 38.70151 12.54838 12968 ft 376 kts 156°
2026-05-04 11:42 38.67781 12.56261 12505 ft 373 kts 155°
2026-05-04 11:42 38.65465 12.57652 12035 ft 370 kts 156°
2026-05-04 11:43 38.63143 12.59043 11552 ft 367 kts 156°
2026-05-04 11:43 38.60835 12.60424 11085 ft 364 kts 156°
2026-05-04 11:43 38.58574 12.61777 10751 ft 356 kts 156°
2026-05-04 11:43 38.56373 12.63093 10591 ft 342 kts 156°
2026-05-04 11:44 38.54239 12.64368 10425 ft 330 kts 156°
2026-05-04 11:44 38.52217 12.65575 10270 ft 318 kts 156°
2026-05-04 11:44 38.50230 12.66761 10097 ft 307 kts 156°
2026-05-04 11:44 38.48296 12.67911 9691 ft 306 kts 156°
2026-05-04 11:45 38.46379 12.69051 9324 ft 302 kts 156°
2026-05-04 11:45 38.44518 12.70158 9115 ft 294 kts 156°
2026-05-04 11:45 38.42687 12.71249 8965 ft 284 kts 156°
2026-05-04 11:45 38.40916 12.72305 8679 ft 279 kts 156°
2026-05-04 11:46 38.39171 12.73346 8400 ft 274 kts 156°
2026-05-04 11:46 38.37447 12.74373 7983 ft 275 kts 156°
2026-05-04 11:46 38.35723 12.75400 7703 ft 270 kts 156°
2026-05-04 11:46 38.34030 12.76408 7360 ft 269 kts 156°
2026-05-04 11:47 38.32330 12.77415 6984 ft 268 kts 156°
2026-05-04 11:47 38.30661 12.78398 6711 ft 264 kts 156°
2026-05-04 11:47 38.29005 12.79373 6334 ft 264 kts 156°
2026-05-04 11:47 38.27340 12.80353 6052 ft 260 kts 156°
2026-05-04 11:48 38.25706 12.81316 5772 ft 256 kts 156°
2026-05-04 11:48 38.24116 12.82242 5517 ft 251 kts 157°
2026-05-04 11:48 38.22508 12.83122 5168 ft 251 kts 158°
2026-05-04 11:48 38.20885 12.83990 4828 ft 250 kts 158°
2026-05-04 11:49 38.19304 12.84838 4506 ft 249 kts 158°
2026-05-04 11:49 38.17733 12.85683 4172 ft 242 kts 158°
2026-05-04 11:49 38.16201 12.86510 3851 ft 233 kts 158°
2026-05-04 11:49 38.14739 12.87300 3642 ft 221 kts 157°
2026-05-04 11:50 38.13328 12.88063 3544 ft 220 kts 157°
2026-05-04 11:50 38.11924 12.88865 3370 ft 221 kts 149°
2026-05-04 11:50 38.10940 12.90283 3085 ft 220 kts 108°
2026-05-04 11:50 38.10981 12.92205 2901 ft 224 kts 66°
2026-05-04 11:51 38.11809 12.93857 2675 ft 219 kts 56°
2026-05-04 11:51 38.12647 12.95420 2359 ft 208 kts 59°
2026-05-04 11:51 38.13345 12.96936 2186 ft 192 kts 63°
2026-05-04 11:51 38.13958 12.98417 1787 ft 192 kts 65°
2026-05-04 11:52 38.14506 12.99914 1500 ft 177 kts 68°
2026-05-04 11:52 38.14928 13.01304 1291 ft 161 kts 68°
2026-05-04 11:52 38.15354 13.02552 1002 ft 149 kts 66°
2026-05-04 11:52 38.15763 13.03752 837 ft 146 kts 65°
2026-05-04 11:53 38.16171 13.04930 698 ft 145 kts 65°
2026-05-04 11:53 38.16574 13.06103 549 ft 144 kts 66°
2026-05-04 11:53 38.16959 13.07259 383 ft 142 kts 65°
2026-05-04 11:53 38.17353 13.08405 195 ft 141 kts 65°
2026-05-04 11:55 38.18615 13.11651 69 ft 16 kts 275°
2026-05-04 11:55 38.18599 13.11509 71 ft 16 kts 248°
2026-05-04 11:56 38.18554 13.11374 73 ft 16 kts 247°
2026-05-04 11:56 38.18506 13.11231 73 ft 18 kts 245°
2026-05-04 11:56 38.18455 13.11081 77 ft 18 kts 248°
2026-05-04 11:56 38.18439 13.10947 76 ft 16 kts 304°
2026-05-04 11:57 38.18487 13.10811 75 ft 14 kts 287°
2026-05-04 11:57 38.18510 13.10703 74 ft 10 kts 312°
2026-05-04 11:57 38.18560 13.10666 71 ft 1 kts 336°
2026-05-04 11:57 38.18561 13.10666 71 ft 0 kts 336°